Tracking 29493 objects as of 8-Sep-2024
HD Live streaming from Space Station
objects crossing your sky now

FENGYUN 1C DEB

Track FENGYUN 1C DEB now!
10-day predictions


NORAD ID: 37927
Int'l Code: 1999-025EPC
Perigee: 743.0 km
Apogee: 756.1 km
Inclination: 98.8 °
Period: 99.7 minutes
Semi major axis: 7120 km
RCS: 0.0028 m2 (small)
Launch date: May 10, 1999
Source: People's Republic of China (PRC)
Launch site: Taiyaun Space Center, China (TSC)

Note: This is SATELLITE DEBRIS
Your satellite tracking list
Your tracking list is empty




NASA's NSSDC Master Catalog

Two Line Element Set (TLE):
1 37927U 99025EPC 24249.55713875  .00034120  00000-0  97608-2 0  9997
2 37927  98.8064 359.6196 0009238 248.0478 111.9730 14.44884227772742
Source of the keplerian elements: AFSPC